,,,PA_Meas_PMT16A,,PR_Meas_QMR101_102,,RH_Meas_QMH101,,SR_Meas_QMS101,,TA_Meas_QMH101,,GenWind,,GenWind,
date,time,status,PA,status,PR,status,RH,status,SR,status,TA,status,DirAvg,status,SpdAvg,
2013-01-16, 00:00:04,VALID,1010.94,VALID,0,VALID,102.559,VALID,0,VALID,24.9608,VALID,14,VALID,0.00078125,
2013-01-16, 00:01:04,VALID,1010.92,VALID,0,VALID,102.627,VALID,0,VALID,24.9608,VALID,13,VALID,0.124219,
2013-01-16, 00:02:04,VALID,1010.94,VALID,0,VALID,102.605,VALID,0,VALID,24.9608,VALID,14,VALID,0.323047,
2013-01-16, 00:03:04,VALID,1010.96,VALID,0,VALID,102.658,VALID,0,VALID,24.9218,VALID,13,VALID,0.376563,
2013-01-16, 00:04:04,VALID,1010.93,VALID,0,VALID,102.612,VALID,0,VALID,24.9413,VALID,13,VALID,0.175391,
2013-01-16, 00:05:04,VALID,1010.94,VALID,0,VALID,102.719,VALID,0,VALID,24.9218,VALID,13,VALID,0.00195313,
2013-01-16, 00:06:04,VALID,1010.92,VALID,0,VALID,102.65,VALID,0,VALID,24.9218,VALID,13,VALID,0.579687,
2013-01-16, 00:07:04,VALID,1010.92,VALID,0,VALID,102.711,VALID,0,VALID,24.9218,VALID,13,VALID,0.253516,
2013-01-16, 00:08:04,VALID,1010.88,VALID,0,VALID,102.765,VALID,0,VALID,24.8828,VALID,14,VALID,0.355469,
2013-01-16, 00:09:04,VALID,1010.88,VALID,0,VALID,102.612,VALID,0,VALID,24.9218,VALID,14,VALID,0.277734,
2013-01-16, 00:10:04,VALID,1010.86,VALID,0,VALID,102.589,VALID,0,VALID,24.9042,VALID,14,VALID,0.342578,
2013-01-16, 00:11:04,VALID,1010.86,VALID,0,VALID,102.566,VALID,0,VALID,24.9218,VALID,14,VALID,0.519531,
2013-01-16, 00:12:04,VALID,1010.84,VALID,0,VALID,102.475,VALID,0,VALID,24.8828,VALID,13,VALID,0.379687,
2013-01-16, 00:13:04,VALID,1010.84,VALID,0,VALID,102.421,VALID,0,VALID,24.8828,VALID,13,VALID,0.164844,
2013-01-16, 00:14:04,VALID,1010.84,VALID,0,VALID,102.521,VALID,0,VALID,24.8615,VALID,14,VALID,0.294922,
2013-01-16, 00:15:04,VALID,1010.83,VALID,0,VALID,102.544,VALID,0,VALID,24.8615,VALID,13,VALID,0.178906,
2013-01-16, 00:16:04,VALID,1010.81,VALID,0,VALID,102.711,VALID,0,VALID,24.8438,VALID,14,VALID,0.256641,
2013-01-16, 00:17:04,VALID,1010.82,VALID,0,VALID,102.78,VALID,0,VALID,24.8049,VALID,14,VALID,0.288672,
2013-01-16, 00:18:04,VALID,1010.81,VALID,0,VALID,102.917,VALID,0,VALID,24.8049,VALID,13,VALID,0.355469,
2013-01-16, 00:19:04,VALID,1010.79,VALID,0,VALID,103.009,VALID,0,VALID,24.7854,VALID,13,VALID,0.11875,
2013-01-16, 00:20:04,VALID,1010.79,VALID,0,VALID,103.07,VALID,0,VALID,24.8049,VALID,13,VALID,0.0609375,
2013-01-16, 00:21:04,VALID,1010.77,VALID,0,VALID,103.146,VALID,0,VALID,24.7872,VALID,14,VALID,0.00195313,
2013-01-16, 00:22:04,VALID,1010.77,VALID,0,VALID,103.276,VALID,0,VALID,24.7659,VALID,13,VALID,0,
2013-01-16, 00:23:04,VALID,1010.76,VALID,0,VALID,103.283,VALID,0,VALID,24.7659,VALID,13,VALID,0.0375,
2013-01-16, 00:24:04,VALID,1010.77,VALID,0,VALID,103.253,VALID,0,VALID,24.7464,VALID,13,VALID,0.15,
2013-01-16, 00:25:04,VALID,1010.77,VALID,0,VALID,103.23,VALID,0,VALID,24.7464,VALID,14,VALID,0.00429688,
2013-01-16, 00:26:04,VALID,1010.74,VALID,0,VALID,103.276,VALID,0,VALID,24.7055,VALID,13,VALID,0,
2013-01-16, 00:27:04,VALID,1010.77,VALID,0,VALID,103.367,VALID,0,VALID,24.7269,VALID,14,VALID,0,
2013-01-16, 00:28:04,VALID,1010.76,VALID,0,VALID,103.344,VALID,0,VALID,24.7269,VALID,14,VALID,0,
2013-01-16, 00:29:04,VALID,1010.77,VALID,0,VALID,103.497,VALID,0,VALID,24.7269,VALID,13,VALID,0,
2013-01-16, 00:30:04,VALID,1010.77,VALID,0,VALID,103.55,VALID,0,VALID,24.7269,VALID,14,VALID,0,
2013-01-16, 00:31:04,VALID,1010.73,VALID,0,VALID,103.558,VALID,0,VALID,24.7074,VALID,13,VALID,0,
2013-01-16, 00:32:04,VALID,1010.75,VALID,0,VALID,103.634,VALID,0,VALID,24.7269,VALID,14,VALID,0,
2013-01-16, 00:33:04,VALID,1010.77,VALID,0,VALID,103.611,VALID,0,VALID,24.6879,VALID,14,VALID,0,
2013-01-16, 00:34:04,VALID,1010.76,VALID,0,VALID,103.596,VALID,0,VALID,24.6684,VALID,13,VALID,0,
2013-01-16, 00:35:04,VALID,1010.75,VALID,0,VALID,103.573,VALID,0,VALID,24.6879,VALID,14,VALID,0,
2013-01-16, 00:36:04,VALID,1010.75,VALID,0,VALID,103.405,VALID,0,VALID,24.6684,VALID,13,VALID,0,
2013-01-16, 00:37:04,VALID,1010.75,VALID,0,VALID,103.367,VALID,0,VALID,24.6489,VALID,13,VALID,0,
2013-01-16, 00:38:04,VALID,1010.73,VALID,0,VALID,103.298,VALID,0,VALID,24.6294,VALID,13,VALID,0,
2013-01-16, 00:39:04,VALID,1010.7,VALID,0,VALID,103.298,VALID,0,VALID,24.6099,VALID,14,VALID,0,
2013-01-16, 00:40:04,VALID,1010.69,VALID,0,VALID,103.291,VALID,0,VALID,24.6099,VALID,13,VALID,0,
2013-01-16, 00:41:04,VALID,1010.68,VALID,0,VALID,103.451,VALID,0,VALID,24.5905,VALID,14,VALID,0,
2013-01-16, 00:42:04,VALID,1010.67,VALID,0,VALID,103.405,VALID,0,VALID,24.5905,VALID,13,VALID,0.178125,
2013-01-16, 00:43:04,VALID,1010.67,VALID,0,VALID,103.321,VALID,0,VALID,24.571,VALID,14,VALID,0.362891,
2013-01-16, 00:44:04,VALID,1010.65,VALID,0,VALID,103.245,VALID,0.112112,VALID,24.5691,VALID,14,VALID,0.199609,
2013-01-16, 00:45:04,VALID,1010.64,VALID,0,VALID,103.306,VALID,0.112112,VALID,24.5886,VALID,13,VALID,0.142188,
2013-01-16, 00:46:04,VALID,1010.64,VALID,0,VALID,103.42,VALID,0.112112,VALID,24.6081,VALID,14,VALID,0.124609,
2013-01-16, 00:47:04,VALID,1010.62,VALID,0,VALID,103.489,VALID,0,VALID,24.571,VALID,14,VALID,0.198828,
2013-01-16, 00:48:04,VALID,1010.62,VALID,0,VALID,103.55,VALID,0,VALID,24.571,VALID,13,VALID,0.216016,
2013-01-16, 00:49:04,VALID,1010.59,VALID,0,VALID,103.512,VALID,0,VALID,24.5515,VALID,13,VALID,0.195313,
2013-01-16, 00:50:04,VALID,1010.57,VALID,0,VALID,103.504,VALID,0,VALID,24.532,VALID,13,VALID,0,
2013-01-16, 00:51:04,VALID,1010.58,VALID,0,VALID,103.596,VALID,0,VALID,24.5125,VALID,13,VALID,0,
2013-01-16, 00:52:04,VALID,1010.63,VALID,0,VALID,103.695,VALID,0,VALID,24.5125,VALID,13,VALID,0,
2013-01-16, 00:53:04,VALID,1010.61,VALID,0,VALID,103.771,VALID,0,VALID,24.493,VALID,13,VALID,0.157813,
2013-01-16, 00:54:04,VALID,1010.61,VALID,0,VALID,103.726,VALID,0,VALID,24.493,VALID,13,VALID,0,
2013-01-16, 00:55:04,VALID,1010.61,VALID,0,VALID,103.825,VALID,0,VALID,24.5125,VALID,13,VALID,0,
2013-01-16, 00:56:04,VALID,1010.61,VALID,0,VALID,103.992,VALID,0,VALID,24.5125,VALID,13,VALID,0,
2013-01-16, 00:57:04,VALID,1010.58,VALID,0,VALID,103.977,VALID,0,VALID,24.4735,VALID,13,VALID,0,
2013-01-16, 00:58:04,VALID,1010.62,VALID,0,VALID,103.939,VALID,0,VALID,24.4735,VALID,13,VALID,0,
2013-01-16, 00:59:04,VALID,1010.61,VALID,0,VALID,103.939,VALID,0,VALID,24.454,VALID,13,VALID,0,
2013-01-16, 01:00:04,VALID,1010.61,VALID,0,VALID,103.916,VALID,0,VALID,24.4735,VALID,14,VALID,0.0277344,
2013-01-16, 01:01:04,VALID,1010.6,VALID,0,VALID,103.939,VALID,0,VALID,24.4345,VALID,13,VALID,0.000390625,
2013-01-16, 01:02:04,VALID,1010.58,VALID,0,VALID,103.886,VALID,0.112112,VALID,24.4717,VALID,13,VALID,0,
2013-01-16, 01:03:04,VALID,1010.6,VALID,0,VALID,104,VALID,0.112112,VALID,24.4327,VALID,13,VALID,0.0628906,
2013-01-16, 01:04:04,VALID,1010.58,VALID,0,VALID,104,VALID,0.112112,VALID,24.4522,VALID,13,VALID,0,
2013-01-16, 01:05:04,VALID,1010.58,VALID,0,VALID,104,VALID,0.112112,VALID,24.4522,VALID,14,VALID,0.0359375,
2013-01-16, 01:06:04,VALID,1010.55,VALID,0,VALID,104,VALID,0.112112,VALID,24.4522,VALID,13,VALID,0.0910156,
2013-01-16, 01:07:04,VALID,1010.53,VALID,0,VALID,104,VALID,0.112112,VALID,24.4327,VALID,14,VALID,0,
2013-01-16, 01:08:04,VALID,1010.57,VALID,0,VALID,104,VALID,0.112112,VALID,24.4132,VALID,13,VALID,0,
2013-01-16, 01:09:04,VALID,1010.57,VALID,0,VALID,104,VALID,0.112112,VALID,24.4345,VALID,13,VALID,0,
2013-01-16, 01:10:04,VALID,1010.56,VALID,0,VALID,104,VALID,0.112112,VALID,24.4132,VALID,13,VALID,0,
2013-01-16, 01:11:04,VALID,1010.54,VALID,0,VALID,104,VALID,0.112112,VALID,24.3919,VALID,13,VALID,0,
2013-01-16, 01:12:04,VALID,1010.57,VALID,0,VALID,104,VALID,0.112112,VALID,24.3937,VALID,14,VALID,0.190234,
2013-01-16, 01:13:04,VALID,1010.59,VALID,0,VALID,104,VALID,0.112112,VALID,24.3937,VALID,13,VALID,0.164844,
2013-01-16, 01:14:04,VALID,1010.6,VALID,0,VALID,104,VALID,0.112112,VALID,24.3937,VALID,14,VALID,0,
2013-01-16, 01:15:04,VALID,1010.61,VALID,0,VALID,104,VALID,0.112112,VALID,24.3937,VALID,13,VALID,0,
2013-01-16, 01:16:04,VALID,1010.64,VALID,0,VALID,103.931,VALID,0.112112,VALID,24.4132,VALID,13,VALID,0.136719,
2013-01-16, 01:17:04,VALID,1010.64,VALID,0,VALID,103.893,VALID,0,VALID,24.415,VALID,13,VALID,0,
2013-01-16, 01:18:04,VALID,1010.64,VALID,0,VALID,103.863,VALID,0,VALID,24.415,VALID,13,VALID,0.220703,
2013-01-16, 01:19:04,VALID,1010.63,VALID,0,VALID,103.756,VALID,0,VALID,24.3937,VALID,13,VALID,0.216016,
2013-01-16, 01:20:04,VALID,1010.66,VALID,0,VALID,103.771,VALID,0,VALID,24.4345,VALID,14,VALID,0.0207031,
2013-01-16, 01:21:04,VALID,1010.67,VALID,0,VALID,103.886,VALID,0,VALID,24.4345,VALID,13,VALID,0.220313,
2013-01-16, 01:22:04,VALID,1010.67,VALID,0,VALID,104,VALID,0,VALID,24.415,VALID,14,VALID,0.209766,
2013-01-16, 01:23:04,VALID,1010.73,VALID,0,VALID,104,VALID,0,VALID,24.3956,VALID,14,VALID,0.107031,
2013-01-16, 01:24:04,VALID,1010.76,VALID,0,VALID,104,VALID,0,VALID,24.3956,VALID,13,VALID,0.129297,
2013-01-16, 01:25:04,VALID,1010.75,VALID,0,VALID,104,VALID,0,VALID,24.3956,VALID,14,VALID,0.117969,
2013-01-16, 01:26:04,VALID,1010.77,VALID,0,VALID,104,VALID,0,VALID,24.3566,VALID,13,VALID,0.187891,
2013-01-16, 01:27:04,VALID,1010.77,VALID,0,VALID,104,VALID,0,VALID,24.3566,VALID,14,VALID,0.164063,
2013-01-16, 01:28:04,VALID,1010.78,VALID,0,VALID,104,VALID,0,VALID,24.3566,VALID,13,VALID,0.150391,
2013-01-16, 01:29:04,VALID,1010.77,VALID,0,VALID,104,VALID,0,VALID,24.3566,VALID,13,VALID,0.151562,
2013-01-16, 01:30:04,VALID,1010.76,VALID,0,VALID,104,VALID,0,VALID,24.3761,VALID,14,VALID,0.226563,
2013-01-16, 01:31:04,VALID,1010.75,VALID,0,VALID,104,VALID,0,VALID,24.3371,VALID,13,VALID,0.0519531,
2013-01-16, 01:32:04,VALID,1010.73,VALID,0,VALID,104,VALID,0,VALID,24.3566,VALID,13,VALID,0,
2013-01-16, 01:33:04,VALID,1010.75,VALID,0,VALID,104,VALID,0,VALID,24.2786,VALID,13,VALID,0,
2013-01-16, 01:34:04,VALID,1010.73,VALID,0,VALID,104,VALID,0,VALID,24.2768,VALID,13,VALID,0,
2013-01-16, 01:35:04,VALID,1010.72,VALID,0,VALID,104,VALID,0,VALID,24.3,VALID,13,VALID,0,
2013-01-16, 01:36:04,VALID,1010.71,VALID,0,VALID,104,VALID,0,VALID,24.261,VALID,14,VALID,0,
2013-01-16, 01:37:04,VALID,1010.69,VALID,0,VALID,104,VALID,0,VALID,24.2202,VALID,13,VALID,0,
2013-01-16, 01:38:04,VALID,1010.7,VALID,0,VALID,104,VALID,0,VALID,24.2007,VALID,14,VALID,0,
2013-01-16, 01:39:04,VALID,1010.73,VALID,0,VALID,104,VALID,0,VALID,24.1812,VALID,14,VALID,0,
2013-01-16, 01:40:04,VALID,1010.69,VALID,0,VALID,104,VALID,0,VALID,24.1812,VALID,14,VALID,0,
2013-01-16, 01:41:04,VALID,1010.68,VALID,0,VALID,104,VALID,0,VALID,24.1812,VALID,13,VALID,0,
2013-01-16, 01:42:04,VALID,1010.67,VALID,0,VALID,104,VALID,0,VALID,24.1617,VALID,13,VALID,0,
2013-01-16, 01:43:04,VALID,1010.7,VALID,0,VALID,104,VALID,0,VALID,24.1227,VALID,14,VALID,0,
2013-01-16, 01:44:04,VALID,1010.71,VALID,0,VALID,104,VALID,0,VALID,24.1227,VALID,13,VALID,0,
2013-01-16, 01:45:04,VALID,1010.7,VALID,0,VALID,104,VALID,0,VALID,24.1422,VALID,13,VALID,0,
2013-01-16, 01:46:04,VALID,1010.7,VALID,0,VALID,104,VALID,0,VALID,24.1422,VALID,14,VALID,0,
2013-01-16, 01:47:04,VALID,1010.69,VALID,0,VALID,104,VALID,0,VALID,24.1227,VALID,14,VALID,0,
2013-01-16, 01:48:04,VALID,1010.69,VALID,0,VALID,104,VALID,0,VALID,24.1227,VALID,13,VALID,0,
2013-01-16, 01:49:04,VALID,1010.67,VALID,0,VALID,104,VALID,0,VALID,24.0837,VALID,14,VALID,0,
2013-01-16, 01:50:04,VALID,1010.67,VALID,0,VALID,104,VALID,0,VALID,24.1227,VALID,13,VALID,0,
2013-01-16, 01:51:04,VALID,1010.68,VALID,0,VALID,104,VALID,0,VALID,24.0837,VALID,13,VALID,0,
2013-01-16, 01:52:04,VALID,1010.67,VALID,0,VALID,104,VALID,0,VALID,24.0643,VALID,14,VALID,0,
2013-01-16, 01:53:04,VALID,1010.67,VALID,0,VALID,104,VALID,0,VALID,24.0837,VALID,13,VALID,0,
2013-01-16, 01:54:04,VALID,1010.67,VALID,0,VALID,104,VALID,0,VALID,24.0837,VALID,13,VALID,0,
2013-01-16, 01:55:04,VALID,1010.67,VALID,0,VALID,104,VALID,0,VALID,24.0058,VALID,14,VALID,0,
2013-01-16, 01:56:04,VALID,1010.69,VALID,0,VALID,104,VALID,0,VALID,24.0253,VALID,13,VALID,0,
2013-01-16, 01:57:04,VALID,1010.65,VALID,0,VALID,104,VALID,0,VALID,24.0058,VALID,13,VALID,0,
2013-01-16, 01:58:04,VALID,1010.66,VALID,0,VALID,104,VALID,0,VALID,23.9863,VALID,13,VALID,0,
2013-01-16, 01:59:04,VALID,1010.64,VALID,0,VALID,104,VALID,0,VALID,23.9863,VALID,13,VALID,0,
2013-01-16, 02:00:04,VALID,1010.61,VALID,0,VALID,104,VALID,0,VALID,24.0448,VALID,13,VALID,0,
2013-01-16, 02:01:04,VALID,1010.62,VALID,0,VALID,104,VALID,0,VALID,24.0058,VALID,14,VALID,0,
2013-01-16, 02:02:04,VALID,1010.65,VALID,0,VALID,104,VALID,0,VALID,23.9863,VALID,14,VALID,0.110156,
2013-01-16, 02:03:04,VALID,1010.64,VALID,0,VALID,104,VALID,0,VALID,23.9863,VALID,14,VALID,0,
2013-01-16, 02:04:04,VALID,1010.64,VALID,0,VALID,104,VALID,0,VALID,23.9863,VALID,13,VALID,0,
2013-01-16, 02:05:04,VALID,1010.64,VALID,0,VALID,104,VALID,0,VALID,23.9668,VALID,14,VALID,0,
2013-01-16, 02:06:04,VALID,1010.65,VALID,0,VALID,104,VALID,0,VALID,23.9668,VALID,14,VALID,0,
2013-01-16, 02:07:04,VALID,1010.66,VALID,0,VALID,104,VALID,0,VALID,23.9278,VALID,13,VALID,0,
2013-01-16, 02:08:04,VALID,1010.65,VALID,0,VALID,104,VALID,0,VALID,23.8889,VALID,14,VALID,0,
2013-01-16, 02:09:04,VALID,1010.65,VALID,0,VALID,104,VALID,0,VALID,23.9084,VALID,14,VALID,0,
2013-01-16, 02:10:04,VALID,1010.66,VALID,0,VALID,104,VALID,0,VALID,23.9084,VALID,13,VALID,0.188281,
2013-01-16, 02:11:04,VALID,1010.67,VALID,0,VALID,104,VALID,0,VALID,23.9084,VALID,14,VALID,0.240625,
2013-01-16, 02:12:04,VALID,1010.68,VALID,0,VALID,104,VALID,0,VALID,23.9084,VALID,13,VALID,0.215234,
2013-01-16, 02:13:04,VALID,1010.7,VALID,0,VALID,104,VALID,0,VALID,23.8889,VALID,13,VALID,0.158203,
2013-01-16, 02:14:04,VALID,1010.65,VALID,0,VALID,104,VALID,0,VALID,23.9084,VALID,13,VALID,0,
2013-01-16, 02:15:04,VALID,1010.67,VALID,0,VALID,104,VALID,0,VALID,23.9084,VALID,14,VALID,0,
2013-01-16, 02:16:04,VALID,1010.68,VALID,0,VALID,104,VALID,0,VALID,23.9084,VALID,13,VALID,0,
2013-01-16, 02:17:04,VALID,1010.69,VALID,0,VALID,104,VALID,0.112112,VALID,23.9065,VALID,13,VALID,0,
2013-01-16, 02:18:04,VALID,1010.67,VALID,0,VALID,104,VALID,0.112112,VALID,23.9065,VALID,14,VALID,0,
2013-01-16, 02:19:04,VALID,1010.64,VALID,0,VALID,104,VALID,0.112112,VALID,23.8852,VALID,13,VALID,0,
2013-01-16, 02:20:04,VALID,1010.63,VALID,0,VALID,104,VALID,0.112112,VALID,23.9065,VALID,13,VALID,0,
2013-01-16, 02:21:04,VALID,1010.65,VALID,0,VALID,104,VALID,0.112112,VALID,23.9065,VALID,13,VALID,0,
2013-01-16, 02:22:04,VALID,1010.63,VALID,0,VALID,104,VALID,0.112112,VALID,23.8871,VALID,14,VALID,0,
2013-01-16, 02:23:04,VALID,1010.62,VALID,0,VALID,104,VALID,0.112112,VALID,23.9065,VALID,13,VALID,0,
2013-01-16, 02:24:04,VALID,1010.6,VALID,0,VALID,104,VALID,0.112112,VALID,23.9065,VALID,13,VALID,0,
2013-01-16, 02:25:04,VALID,1010.59,VALID,0,VALID,104,VALID,0.112112,VALID,23.9065,VALID,13,VALID,0,
2013-01-16, 02:26:04,VALID,1010.58,VALID,0,VALID,104,VALID,0.112112,VALID,23.8871,VALID,13,VALID,0.202344,
2013-01-16, 02:27:04,VALID,1010.62,VALID,0,VALID,104,VALID,0.112112,VALID,23.8463,VALID,13,VALID,0.189063,
2013-01-16, 02:28:04,VALID,1010.62,VALID,0,VALID,104,VALID,0.112112,VALID,23.8676,VALID,13,VALID,0.217187,
2013-01-16, 02:29:04,VALID,1010.6,VALID,0,VALID,104,VALID,0.112112,VALID,23.8676,VALID,13,VALID,0.141406,
2013-01-16, 02:30:04,VALID,1010.56,VALID,0,VALID,104,VALID,0.112112,VALID,23.8676,VALID,13,VALID,0,
2013-01-16, 02:31:04,VALID,1010.56,VALID,0,VALID,104,VALID,0.112112,VALID,23.8676,VALID,14,VALID,0,
2013-01-16, 02:32:04,VALID,1010.56,VALID,0,VALID,104,VALID,0,VALID,23.8499,VALID,13,VALID,0,
2013-01-16, 02:33:04,VALID,1010.58,VALID,0,VALID,104,VALID,0,VALID,23.8304,VALID,14,VALID,0,
2013-01-16, 02:34:04,VALID,1010.59,VALID,0,VALID,104,VALID,0,VALID,23.8304,VALID,13,VALID,0,
2013-01-16, 02:35:04,VALID,1010.57,VALID,0,VALID,104,VALID,0,VALID,23.8286,VALID,13,VALID,0,
2013-01-16, 02:36:04,VALID,1010.54,VALID,0,VALID,104,VALID,0,VALID,23.8499,VALID,14,VALID,0,
2013-01-16, 02:37:04,VALID,1010.55,VALID,0,VALID,104,VALID,0.112112,VALID,23.8109,VALID,13,VALID,0,
2013-01-16, 02:38:04,VALID,1010.52,VALID,0,VALID,104,VALID,0,VALID,23.7914,VALID,14,VALID,0,
2013-01-16, 02:39:04,VALID,1010.5,VALID,0,VALID,104,VALID,0,VALID,23.7914,VALID,13,VALID,0,
2013-01-16, 02:40:04,VALID,1010.52,VALID,0,VALID,104,VALID,0,VALID,23.7914,VALID,13,VALID,0,
2013-01-16, 02:41:04,VALID,1010.5,VALID,0,VALID,104,VALID,0,VALID,23.772,VALID,14,VALID,0.0863281,
2013-01-16, 02:42:04,VALID,1010.51,VALID,0,VALID,104,VALID,0,VALID,23.7525,VALID,13,VALID,0.221484,
2013-01-16, 02:43:04,VALID,1010.5,VALID,0,VALID,104,VALID,0,VALID,23.7525,VALID,14,VALID,0.321094,
2013-01-16, 02:44:04,VALID,1010.51,VALID,0,VALID,104,VALID,0,VALID,23.7525,VALID,13,VALID,0.303906,
2013-01-16, 02:45:04,VALID,1010.51,VALID,0,VALID,104,VALID,0,VALID,23.7525,VALID,13,VALID,0.3875,
2013-01-16, 02:46:04,VALID,1010.53,VALID,0,VALID,104,VALID,0,VALID,23.772,VALID,14,VALID,0.344141,
2013-01-16, 02:47:04,VALID,1010.54,VALID,0,VALID,104,VALID,0,VALID,23.772,VALID,14,VALID,0.292578,
2013-01-16, 02:48:04,VALID,1010.5,VALID,0,VALID,104,VALID,0,VALID,23.7932,VALID,13,VALID,0.256641,
2013-01-16, 02:49:04,VALID,1010.52,VALID,0,VALID,104,VALID,0,VALID,23.772,VALID,14,VALID,0.201953,
2013-01-16, 02:50:04,VALID,1010.52,VALID,0,VALID,104,VALID,0,VALID,23.7914,VALID,13,VALID,0.277734,
2013-01-16, 02:51:04,VALID,1010.51,VALID,0,VALID,104,VALID,0,VALID,23.772,VALID,13,VALID,0.157422,
2013-01-16, 02:52:04,VALID,1010.49,VALID,0,VALID,104,VALID,0,VALID,23.7914,VALID,14,VALID,0.0921875,
2013-01-16, 02:53:04,VALID,1010.47,VALID,0,VALID,104,VALID,0,VALID,23.772,VALID,14,VALID,0.00429688,
2013-01-16, 02:54:04,VALID,1010.48,VALID,0,VALID,104,VALID,0,VALID,23.7507,VALID,13,VALID,0,
2013-01-16, 02:55:04,VALID,1010.47,VALID,0,VALID,104,VALID,0,VALID,23.7525,VALID,13,VALID,0,
2013-01-16, 02:56:04,VALID,1010.46,VALID,0,VALID,104,VALID,0,VALID,23.733,VALID,14,VALID,0,
2013-01-16, 02:57:04,VALID,1010.45,VALID,0,VALID,104,VALID,0,VALID,23.7135,VALID,14,VALID,0,
2013-01-16, 02:58:04,VALID,1010.46,VALID,0,VALID,104,VALID,0,VALID,23.694,VALID,13,VALID,0,
2013-01-16, 02:59:04,VALID,1010.49,VALID,0,VALID,104,VALID,0.112112,VALID,23.694,VALID,13,VALID,0,
2013-01-16, 03:00:04,VALID,1010.5,VALID,0,VALID,104,VALID,0,VALID,23.6745,VALID,13,VALID,0,
2013-01-16, 03:01:04,VALID,1010.5,VALID,0,VALID,104,VALID,0,VALID,23.6745,VALID,13,VALID,0,
2013-01-16, 03:02:04,VALID,1010.55,VALID,0,VALID,104,VALID,0,VALID,23.6745,VALID,13,VALID,0,
2013-01-16, 03:03:04,VALID,1010.56,VALID,0,VALID,104,VALID,0,VALID,23.6745,VALID,13,VALID,0,
2013-01-16, 03:04:04,VALID,1010.55,VALID,0,VALID,104,VALID,0,VALID,23.655,VALID,14,VALID,0,
2013-01-16, 03:05:04,VALID,1010.58,VALID,0,VALID,104,VALID,0.112112,VALID,23.655,VALID,14,VALID,0,
2013-01-16, 03:06:04,VALID,1010.59,VALID,0,VALID,104,VALID,0,VALID,23.655,VALID,14,VALID,0,
2013-01-16, 03:07:04,VALID,1010.62,VALID,0,VALID,104,VALID,0,VALID,23.6356,VALID,13,VALID,0,
2013-01-16, 03:08:04,VALID,1010.6,VALID,0,VALID,104,VALID,0,VALID,23.655,VALID,13,VALID,0,
2013-01-16, 03:09:04,VALID,1010.63,VALID,0,VALID,104,VALID,0,VALID,23.6745,VALID,14,VALID,0.146094,
2013-01-16, 03:10:04,VALID,1010.65,VALID,0,VALID,104,VALID,0,VALID,23.7135,VALID,13,VALID,0,
2013-01-16, 03:11:04,VALID,1010.65,VALID,0,VALID,104,VALID,0,VALID,23.7525,VALID,13,VALID,0,
2013-01-16, 03:12:04,VALID,1010.68,VALID,0,VALID,104,VALID,0.112112,VALID,23.7525,VALID,14,VALID,0,
2013-01-16, 03:13:04,VALID,1010.69,VALID,0,VALID,104,VALID,0,VALID,23.7525,VALID,14,VALID,0,
2013-01-16, 03:14:04,VALID,1010.7,VALID,0,VALID,104,VALID,0,VALID,23.7525,VALID,13,VALID,0,
2013-01-16, 03:15:04,VALID,1010.73,VALID,0,VALID,104,VALID,0,VALID,23.733,VALID,13,VALID,0,
2013-01-16, 03:16:04,VALID,1010.74,VALID,0,VALID,104,VALID,0,VALID,23.7135,VALID,13,VALID,0,
2013-01-16, 03:17:04,VALID,1010.74,VALID,0,VALID,104,VALID,0,VALID,23.7135,VALID,14,VALID,0,
2013-01-16, 03:18:04,VALID,1010.76,VALID,0,VALID,104,VALID,0,VALID,23.694,VALID,13,VALID,0,
2013-01-16, 03:19:04,VALID,1010.8,VALID,0,VALID,104,VALID,0,VALID,23.7153,VALID,14,VALID,0,
2013-01-16, 03:20:04,VALID,1010.82,VALID,0,VALID,104,VALID,0,VALID,23.6745,VALID,14,VALID,0,
2013-01-16, 03:21:04,VALID,1010.86,VALID,0,VALID,104,VALID,0,VALID,23.655,VALID,14,VALID,0,
2013-01-16, 03:22:04,VALID,1010.84,VALID,0,VALID,104,VALID,0,VALID,23.6356,VALID,13,VALID,0,
2013-01-16, 03:23:04,VALID,1010.86,VALID,0,VALID,104,VALID,0,VALID,23.6143,VALID,14,VALID,0.0875,
2013-01-16, 03:24:04,VALID,1010.87,VALID,0,VALID,104,VALID,0,VALID,23.5966,VALID,14,VALID,0,
2013-01-16, 03:25:04,VALID,1010.87,VALID,0,VALID,104,VALID,0.112112,VALID,23.5558,VALID,13,VALID,0,
2013-01-16, 03:26:04,VALID,1010.88,VALID,0,VALID,104,VALID,0,VALID,23.5576,VALID,13,VALID,0,
2013-01-16, 03:27:04,VALID,1010.9,VALID,0,VALID,104,VALID,0,VALID,23.5576,VALID,14,VALID,0,
2013-01-16, 03:28:04,VALID,1010.91,VALID,0,VALID,104,VALID,0,VALID,23.5966,VALID,13,VALID,0,
2013-01-16, 03:29:04,VALID,1010.9,VALID,0,VALID,104,VALID,0,VALID,23.5576,VALID,13,VALID,0,
2013-01-16, 03:30:04,VALID,1010.91,VALID,0,VALID,104,VALID,0,VALID,23.5576,VALID,14,VALID,0,
2013-01-16, 03:31:04,VALID,1010.93,VALID,0,VALID,104,VALID,0,VALID,23.5966,VALID,13,VALID,0,
2013-01-16, 03:32:04,VALID,1010.91,VALID,0,VALID,104,VALID,0,VALID,23.5771,VALID,14,VALID,0,
2013-01-16, 03:33:04,VALID,1010.89,VALID,0,VALID,104,VALID,0,VALID,23.5789,VALID,13,VALID,0,
2013-01-16, 03:34:04,VALID,1010.89,VALID,0,VALID,104,VALID,0,VALID,23.5771,VALID,13,VALID,0,
2013-01-16, 03:35:04,VALID,1010.89,VALID,0,VALID,104,VALID,0,VALID,23.5966,VALID,14,VALID,0,
2013-01-16, 03:36:04,VALID,1010.88,VALID,0,VALID,104,VALID,0,VALID,23.6356,VALID,13,VALID,0,
2013-01-16, 03:37:04,VALID,1010.9,VALID,0,VALID,104,VALID,0,VALID,23.6356,VALID,13,VALID,0,
2013-01-16, 03:38:04,VALID,1010.85,VALID,0,VALID,104,VALID,0,VALID,23.6338,VALID,14,VALID,0,
2013-01-16, 03:39:04,VALID,1010.85,VALID,0,VALID,104,VALID,0,VALID,23.6356,VALID,13,VALID,0,
2013-01-16, 03:40:04,VALID,1010.88,VALID,0,VALID,104,VALID,0,VALID,23.655,VALID,14,VALID,0,
2013-01-16, 03:41:04,VALID,1010.85,VALID,0,VALID,104,VALID,0,VALID,23.6356,VALID,13,VALID,0,
2013-01-16, 03:42:04,VALID,1010.87,VALID,0,VALID,104,VALID,0,VALID,23.6356,VALID,14,VALID,0,
2013-01-16, 03:43:04,VALID,1010.87,VALID,0,VALID,104,VALID,0,VALID,23.6356,VALID,14,VALID,0,
2013-01-16, 03:44:04,VALID,1010.88,VALID,0,VALID,104,VALID,0,VALID,23.6356,VALID,14,VALID,0,
2013-01-16, 03:45:04,VALID,1010.89,VALID,0,VALID,104,VALID,0,VALID,23.6143,VALID,13,VALID,0,
2013-01-16, 03:46:04,VALID,1010.87,VALID,0,VALID,104,VALID,0,VALID,23.6356,VALID,13,VALID,0,
2013-01-16, 03:47:04,VALID,1010.88,VALID,0,VALID,104,VALID,0.112112,VALID,23.6338,VALID,13,VALID,0.152734,
2013-01-16, 03:48:04,VALID,1010.88,VALID,0,VALID,104,VALID,0.112112,VALID,23.5948,VALID,13,VALID,0.292188,
2013-01-16, 03:49:04,VALID,1010.85,VALID,0,VALID,104,VALID,0.112112,VALID,23.5948,VALID,13,VALID,0.342969,
2013-01-16, 03:50:04,VALID,1010.84,VALID,0,VALID,104,VALID,0.112112,VALID,23.5753,VALID,13,VALID,0.325391,
2013-01-16, 03:51:04,VALID,1010.84,VALID,0,VALID,104,VALID,0.112112,VALID,23.5363,VALID,14,VALID,0.351563,
2013-01-16, 03:52:04,VALID,1010.84,VALID,0,VALID,104,VALID,0.112112,VALID,23.5363,VALID,14,VALID,0.314453,
2013-01-16, 03:53:04,VALID,1010.83,VALID,0,VALID,104,VALID,0.112112,VALID,23.4974,VALID,13,VALID,0.387891,
2013-01-16, 03:54:04,VALID,1010.83,VALID,0,VALID,104,VALID,0.112112,VALID,23.4974,VALID,13,VALID,0.346875,
2013-01-16, 03:55:04,VALID,1010.84,VALID,0,VALID,104,VALID,0.112112,VALID,23.4779,VALID,13,VALID,0.337109,
2013-01-16, 03:56:04,VALID,1010.89,VALID,0,VALID,104,VALID,0.112112,VALID,23.4389,VALID,13,VALID,0.344141,
2013-01-16, 03:57:04,VALID,1010.86,VALID,0,VALID,104,VALID,0.224224,VALID,23.4584,VALID,13,VALID,0.269922,
2013-01-16, 03:58:04,VALID,1010.85,VALID,0,VALID,104,VALID,0.112112,VALID,23.4194,VALID,13,VALID,0.204297,
2013-01-16, 03:59:04,VALID,1010.86,VALID,0,VALID,104,VALID,0.112112,VALID,23.4,VALID,13,VALID,0.205859,